Weather History for Rexburg, ID

Change the Weather History Date:

Tuesday, January 7, 2014

  Actual Average Record
Temperature  
Mean Temperature 19 °F 20 °F  
Max Temperature 27 °F 28 °F 37 °F (2009)
Min Temperature 11 °F 12 °F -17 °F (2010)
Degree Days  
Heating Degree Days 46 45  
Month to date heating degree days 335 315  
Since 1 July heating degree days 3674 3697  
Cooling Degree Days 0 0  
Month to date cooling degree days 0 0  
Year to date cooling degree days 0 0  
Moisture  
Dew Point 11 °F    
Average Humidity 72    
Maximum Humidity 88    
Minimum Humidity 55    
Precipitation  
Precipitation 0.00 in 0.03 in 0.24 in (2004)
Month to date precipitation 0.00 0.22  
Year to date precipitation 0.00 0.22  
Sea Level Pressure  
Sea Level Pressure 30.32 in    
Wind  
Wind Speed 2 mph (NE)    
Max Wind Speed 7 mph    
Max Gust Speed 8 mph    
Visibility 10 miles    
Events      
T = Trace of Precipitation, MM = Missing Value Source: NWS Daily Summary

Daily Weather History Graph

Daily Weather History Graph

Search for Another Location

Airport:

Trip Planner

Search our weather history database for the weather conditions in past years. The results will help you decide how hot, cold, wet, or windy it might be!

Date:

Astronomy

Jan. 07, 2014 Rise Set
Actual Time 8:01 AM MST 5:06 PM MST
Civil Twilight 7:28 AM MST 5:38 PM MST
Nautical Twilight 6:52 AM MST 6:14 PM MST
Astronomical Twilight 6:17 AM MST 6:49 PM MST
Moon 11:36 AM MST (1/7) No Moon Set
Length of Visible Light 10h 10m
Length of Day
9h 05m
Waxing Crescent, 46% of the Moon is Illuminated
Jan 7
Waxing Crescent
Jan 7
First Quarter
Jan 15
Full
Jan 23
Last Quarter
Jan 30
New

Hourly Weather History & Observations

Time (MST) Temp. Windchill Dew Point Humidity Pressure Visibility Wind Dir Wind Speed Gust Speed Precip Events Conditions
12:53 AM 10.9 °F 2.9 °F 5.0 °F 77% 30.44 in 10.0 mi NE 4.6 mph - N/A   Clear
1:53 AM 12.0 °F - 5.0 °F 73% 30.41 in 10.0 mi Calm Calm - N/A   Clear
2:53 AM 12.9 °F - 6.1 °F 74% 30.40 in 10.0 mi Calm Calm - N/A   Clear
3:53 AM 12.9 °F 6.9 °F 7.0 °F 77% 30.38 in 10.0 mi NE 3.5 mph - N/A   Partly Cloudy
4:53 AM 15.1 °F 9.4 °F 8.1 °F 74% 30.36 in 10.0 mi NE 3.5 mph - N/A   Partly Cloudy
5:53 AM 14.0 °F - 8.1 °F 77% 30.37 in 10.0 mi Calm Calm - N/A   Mostly Cloudy
6:53 AM 15.1 °F 9.4 °F 8.1 °F 74% 30.34 in 10.0 mi NNE 3.5 mph - N/A   Overcast
7:53 AM 16.0 °F 7.4 °F 9.0 °F 74% 30.33 in 10.0 mi ENE 5.8 mph - N/A   Overcast
8:53 AM 17.1 °F - 10.9 °F 77% 30.34 in 10.0 mi Calm Calm - N/A   Overcast
9:53 AM 19.0 °F - 12.0 °F 74% 30.34 in 10.0 mi Calm Calm - N/A   Overcast
10:53 AM 21.0 °F 16.2 °F 10.9 °F 65% 30.33 in 10.0 mi South 3.5 mph - N/A   Overcast
11:53 AM 23.0 °F 18.4 °F 12.9 °F 65% 30.30 in 10.0 mi WNW 3.5 mph - N/A   Overcast
12:53 PM 24.1 °F - 12.9 °F 62% 30.28 in 10.0 mi Calm Calm - N/A   Overcast
1:53 PM 26.1 °F 20.5 °F 12.9 °F 58% 30.26 in 10.0 mi ENE 4.6 mph - N/A   Overcast
2:53 PM 26.1 °F 21.9 °F 15.1 °F 63% 30.25 in 10.0 mi NE 3.5 mph - N/A   Overcast
3:53 PM 27.0 °F - 15.1 °F 61% 30.27 in 10.0 mi Calm Calm - N/A   Overcast
4:53 PM 26.1 °F - 15.1 °F 63% 30.27 in 10.0 mi Calm Calm - N/A   Overcast
5:53 PM 25.0 °F - 16.0 °F 69% 30.28 in 10.0 mi Calm Calm - N/A   Overcast
6:53 PM 23.0 °F 18.4 °F 16.0 °F 74% 30.27 in 10.0 mi ENE 3.5 mph - N/A   Overcast
7:53 PM 21.0 °F - 15.1 °F 78% 30.27 in 10.0 mi Calm Calm - N/A   Clear
8:53 PM 18.0 °F - 14.0 °F 84% 30.28 in 10.0 mi Calm Calm - N/A   Overcast
9:53 PM 16.0 °F - 12.9 °F 88% 30.27 in 9.0 mi Calm Calm - N/A   Clear
10:53 PM 14.0 °F - 10.0 °F 84% 30.28 in 3.0 mi Calm Calm - N/A   Mostly Cloudy
11:53 PM 16.0 °F - 12.9 °F 88% 30.25 in 9.0 mi Calm Calm - N/A   Overcast